Powrót do katalogu

STARLINK-32621

AktywnyŁącznośćVLEO
NORAD 62303·PAYLOAD·🇺🇸 United States

Wystrzelony Dec 13, 2024 z Vandenberg Space Force Base

Loading…

Następne Przeloty (najbliższe 24 godziny)

TLE

ŚwieżeSource: CelesTrak SupGP

Epoka: Sep 14, 2026, 21:17 UTC

1 62303C 24239C   26257.88729167  .00025086  00000+0  74145-3 0  2575
2 62303  53.1603  19.6784 0001235  83.9104  86.0933 15.34366933    18

Śledź STARLINK-32621 w czasie rzeczywistym z AllMySat

Download on the App Store